Location: Kalberh�ni
(46.4610°N, 7.2453°E)
Time: 07:41:43
(UTC+00:00)

Cosmos 1606 Rocket - Pass Details

Date: 24 October 2021
Orbit: 601 x 633 km, 82.5° (Epoch: 30 November)

Event Time Altitude Azimuth Distance (km) Brightness Sun altitude
Rises 18:54:59 0° 192° (SSW) 2,914 7.0 -25.8°
Reaches altitude 10° 18:57:13 10° 193° (SSW) 2,011 6.2 -26.2°
Enters shadow 18:57:47 14° 194° (SSW) 1,783 5.9 -26.3°
Exits shadow 19:07:07 - 7° (N) 2,401 6.6 -27.9°
Sets 19:08:25 0° 8° (N) 2,931 7.1 -28.1°
